Miscellaneous Local Product
Issued by NWS Hastings, NE

Home | Current Version | Previous Version | Text Only | Print | Product List | Glossary On
Versions: 1 2 3 4 5 6 7 8 9 10 11 12 13 14 15 16 17 18 19 20 21 22 23 24 25 26 27 28 29 30 31 32 33 34 35 36 37 38 39 40 41 42 43 44 45 46 47 48 49 50
000
AXUS43 KGID 230602
MISGRI

GID CWA HOURLY WEATHER ROUNDUP
NATIONAL WEATHER SERVICE HASTINGS NE
100 AM CDT SAT AUG 23 2014

NOTE: "FAIR" INDICATES FEW OR NO CLOUDS BELOW 12,000 FEET WITH NO
SIGNIFICANT WEATHER AND/OR OBSTRUCTIONS TO VISIBILITY.

...SOUTH CENTRAL NEBRASKA...

CITY           SKY/WX    TMP DP  RH WIND       PRES   REMARKS
GRAND ISLAND   LGT RAIN  68  66  93 N7        29.96F
HASTINGS       LGT RAIN  68  65  90 NE6       29.97R
KEARNEY        CLOUDY    66  66 100 NW9       29.96F
ORD            RAIN      66  65  96 SE9       29.97S
YORK           CLOUDY    68 N/A N/A NW5       29.95F
AURORA         LGT RAIN  69  69 100 NW3       29.95F
LEXINGTON      HVY RAIN  67  66  96 W8        30.02R
HOLDREGE       LGT RAIN  67  66  94 CALM      29.97R
HEBRON         FAIR      75  69  79 N5        29.92R

...NEBRASKA PANHANDLE...

CITY           SKY/WX    TMP DP  RH WIND       PRES   REMARKS
CHADRON        CLOUDY    68  58  70 E5        29.97S
ALLIANCE       LGT RAIN  62  60  93 E7        29.96F
SCOTTSBLUFF    CLOUDY    63  61  93 NW5       29.99S
SIDNEY         CLOUDY    61  58  90 SE6       30.01S

...WESTERN AND NORTH CENTRAL NEBRASKA...

CITY           SKY/WX    TMP DP  RH WIND       PRES   REMARKS
VALENTINE      LGT RAIN  70  67  90 NE8       29.95F
AINSWORTH      RAIN      70  69  95 NE8       29.93F
ONEILL         LGT RAIN  73  72  95 SE16G23   29.95S
BROKEN BOW     LGT RAIN  67  66  97 SE16G24   29.97F
IMPERIAL       CLOUDY    67  64  90 S6        29.94F
NORTH PLATTE   HVY RAIN  67  65  93 SE14      29.95S FOG
MCCOOK         CLOUDY    67  66  97 E12       29.92F

...EASTERN NEBRASKA...

CITY           SKY/WX    TMP DP  RH WIND       PRES   REMARKS
NORFOLK        TSTM      69  66  90 SW14G30   29.99R FOG
SO SIOUX CITY  CLOUDY    77  72  84 VRB3      29.94R
TEKAMAH        FAIR      72  70  93 N3        29.93R
COLUMBUS       MOCLDY    68  64  88 N6        29.98F
ALBION         TSTM      67  65  93 CALM      29.99F
OMAHA EPPLEY   CLOUDY    77  73  87 SW8       29.95R
OFFUTT AFB     TSTM      76  76 100 W7        29.94R
MILLARD        TSTM      74  72  93 SE3       29.94R
LINCOLN        CLOUDY    73  68  84 NW14G28   29.97R
NEBRASKA CITY  MOCLDY    74  73  96 E3        29.91S
BEATRICE       FAIR      74  73  96 NE3       29.91R
FALLS CITY     FAIR      75  73  93 SE6       29.88F

...NORTHERN KANSAS...

CITY           SKY/WX    TMP DP  RH WIND       PRES   REMARKS
GOODLAND       MOCLDY    65  64  97 E7        29.93F
HILL CITY      FAIR      72  66  81 NW5       29.89F
NORTON         CLEAR     66  64  94 N10       29.91F
PHILLIPSBURG   LGT RAIN  70  70 100 N9        29.92F
SMITH CENTER   CLEAR     66  66 100 N8        29.90S
BELOIT         CLEAR     72  70  94 N5        29.88R
HAYS           FAIR      72  64  78 E9        29.89S
RUSSELL        FAIR      73  67  81 NE8       29.87F
CONCORDIA      FAIR      75  73  93 NE7       29.88F
SALINA         FAIR      82  68  62 S9        29.86F
TOPEKA         FAIR      79  74  84 E5        29.89F



USA.gov is the U.S. government's official web portal to all federal, state and local government web resources and services.